Regional Weather Roundup
Issued by NWS

Home | Current Version | Previous Version | Graphics & Text | Print | Product List | Glossary On
Versions: 1 2 3 4 5 6 7 8 9 10 11 12 13 14 15 16 17 18 19 20 21 22 23 24 25 26 27 28 29 30 31 32 33 34 35 36 37 38 39 40 41 42 43 44 45 46 47 48 49 50
756
ASUS44 KJAN 200803
RWRMS

MISSISSIPPI HOURLY WEATHER ROUNDUP
NATIONAL WEATHER SERVICE JACKSON MS
300 AM CDT WED AUG 20 2014

NOTE: "FAIR: INDICATES FEW OR NO CLOUDS BELOW 12,000 FEET WITH NO
SIGNIFICANT WEATHER AND/OR OBSTRUCTIONS TO VISIBILITY.

MSZ001>002-007>008-010>013-018>021-025>028-034>036-200900-
NORTHWEST MISSISSIPPI

CITY           SKY/WX    TMP DP  RH WIND       PRES   REMARKS
CLARKSDALE     FAIR      75  75 100 CALM      29.92S
CLEVELAND      FAIR      73  73  99 SW5       29.92S
GREENWOOD      CLEAR     76  73  91 S7        29.94R
GREENVILLE       N/A    N/A N/A N/A MISG      29.93R
GRENADA        FAIR      75  72  88 SW5       29.93S
OLIVE BRANCH   CLEAR     75  75 100 S5        29.91S
OXFORD         FAIR      73  68  83 CALM      29.95R
TUNICA         SUNNY     73  72  94 CALM      29.91S FOG
$$

MSZ003>006-009-014>017-022>024-029>033-037>039-200900-
NORTHEAST MISSISSIPPI

CITY           SKY/WX    TMP DP  RH WIND       PRES   REMARKS
BELMONT        FAIR      75  74  96 S5        29.94R
COLUMBUS AFB   CLEAR     74  70  87 S6        29.94R
CORINTH        FAIR      75  72  88 CALM      29.92R
GOLDN TRIANGLE PTCLDY    72  66  83 S5        29.96R
STARKVILLE     FAIR      72  68  88 CALM      29.95R
TUPELO         CLEAR     77  74  90 CALM      29.92S
$$

MSZ040-058-200900-
CENTRAL MISSISSIPPI

CITY           SKY/WX    TMP DP  RH WIND       PRES   REMARKS
JACKSON INTL   CLEAR     75  72  90 S3        29.97R
JACKSON HAWKNS CLEAR     76  72  87 CALM      29.97R
MERIDIAN KEY   PTCLDY    70  68  93 CALM      29.96S
MERIDIAN NAS   PTCLDY    71  68  90 CALM      29.96R
RAYMOND        FAIR      73  68  83 CALM      29.97R HAZE
VICKSBURG      CLEAR     71  69  93 CALM      29.96R
$$

MSZ059>079-200900-
SOUTH MISSISSIPPI

CITY           SKY/WX    TMP DP  RH WIND       PRES   REMARKS
BROOKHAVEN     FAIR      73  73 100 CALM      29.99S
COLUMBIA       FOG       72  72 100 MISG      29.97R VSB 3/4
HATTIESBURG    CLEAR     77  73  87 CALM      29.98S
MCCOMB         PTCLDY    75  72  90 CALM      29.98S
NATCHEZ        MOCLDY    73  72  94 SW3       29.97S
PINE BELT      CLEAR     73  70  88 CALM      29.99S
$$

MSZ080>082-200900-
COASTAL MISSISSIPPI

CITY           SKY/WX    TMP DP  RH WIND       PRES   REMARKS
BILOXI         MOCLDY    83  75  77 SW6       29.96S HX  91
PASCAGOULA     CLEAR     77  75  93 CALM      29.97S
GULFPORT       CLEAR     79  76  90 CALM      29.96F
$$



USA.gov is the U.S. government's official web portal to all federal, state and local government web resources and services.